DW2989 Weather Reports


time (UTC)temp
C
wind
direction
speed
KPH
gust
KPH
rain 1hr
cm
rain 24hr
cm
rain mn
cm
humidity
%
barometer
mb
20260504120112 0 35 0.0 0.0 0.00 0.00 0.00 74 1003.6
20260504081525 1 98 3.2 6.4 0.00 0.00 0.00 67 1003.5
20260504050113 7 148 3.2 8.0 0.00 0.00 0.00 43 1004.0
20260504044544 8 114 3.2 9.7 0.00 0.00 0.00 39 1004.1
20260504043037 9 119 6.4 16.1 0.00 0.00 0.00 37 1004.0
20260504041536 10 136 11.3 16.1 0.00 0.00 0.00 34 1004.0
20260504040032 10 98 4.8 14.5 0.00 0.00 0.00 32 1004.1
20260504034538 11 59 4.8 8.0 0.00 0.00 0.00 27 1004.0
20260504033028 11 57 3.2 9.7 0.00 0.00 0.00 26 1003.9
20260504031522 12 343 8.0 16.1 0.00 0.00 0.00 26 1003.7
20260504030029 11 39 3.2 8.0 0.00 0.00 0.00 27 1003.5
20260504024515 13 36 4.8 12.9 0.00 0.00 0.00 24 1003.4
20260504023041 15 40 3.2 8.0 0.00 0.00 0.00 22 1003.3
20260504021537 16 40 3.2 6.4 0.00 0.00 0.00 20 1003.3
20260504020002 16 40 3.2 9.7 0.00 0.00 0.00 19 1003.3
20260504014600 17 36 6.4 16.1 0.00 0.00 0.00 18 1003.2
20260504013056 18 30 6.4 16.1 0.00 0.00 0.00 18 1003.3
20260504011554 18 5 8.0 16.1 0.00 0.00 0.00 17 1003.3
20260504010054 18 33 12.9 20.9 0.00 0.00 0.00 16 1003.4
20260504004546 18 319 8.0 16.1 0.00 0.00 0.00 19 1003.6
20260504003046 18 58 3.2 16.1 0.00 0.00 0.00 18 1003.6
20260504001552 18 337 11.3 22.5 0.00 0.00 0.00 18 1003.8
20260504000037 19 300 12.9 20.9 0.00 0.00 0.00 19 1003.9
20260503234535 19 330 8.0 16.1 0.00 0.00 0.00 19 1004.1
20260503233030 18 49 8.0 17.7 0.00 0.00 0.00 17 1004.0
20260503231542 18 90 0.0 12.9 0.00 0.00 0.00 16 1004.1
20260503230027 19 105 3.2 19.3 0.00 0.00 0.00 17 1004.2
20260503224525 19 81 12.9 20.9 0.00 0.00 0.00 16 1004.3
20260503223027 20 65 9.7 19.3 0.00 0.00 0.00 16 1004.4
20260503221520 20 87 6.4 14.5 0.00 0.00 0.00 16 1004.4
20260503220018 19 85 3.2 9.7 0.00 0.00 0.00 17 1004.6
20260503214516 18 202 3.2 16.1 0.00 0.00 0.00 17 1005.0
20260503213014 20 233 11.3 17.7 0.00 0.00 0.00 16 1005.1
20260503211603 19 28 14.5 22.5 0.00 0.00 0.00 20 1005.4
20260503210041 18 57 9.7 19.3 0.00 0.00 0.00 17 1005.5
20260503204626 19 40 8.0 20.9 0.00 0.00 0.00 18 1005.7
20260503203012 21 26 8.0 29.0 0.00 0.00 0.00 18 1006.1
20260503201501 20 52 6.4 22.5 0.00 0.00 0.00 16 1006.3
20260503194558 20 51 11.3 20.9 0.00 0.00 0.00 18 1006.8
20260503193057 19 12 6.4 27.4 0.00 0.00 0.00 19 1007.0
20260503191604 19 51 12.9 30.6 0.00 0.00 0.00 15 1007.0
20260503190052 20 333 9.7 19.3 0.00 0.00 0.00 18 1007.4
20260503184607 18 109 16.1 29.0 0.00 0.00 0.00 15 1007.6
20260503183049 18 60 12.9 35.4 0.00 0.00 0.00 16 1007.8
20260503181547 18 74 16.1 29.0 0.00 0.00 0.00 16 1008.0
20260503180044 18 331 8.0 22.5 0.00 0.00 0.00 20 1008.4
20260503174553 18 63 12.9 24.1 0.00 0.00 0.00 19 1008.4
20260503173041 18 96 8.0 29.0 0.00 0.00 0.00 19 1008.8
20260503171516 18 16 11.3 25.7 0.00 0.00 0.00 22 1008.8